Weather History for Fort Polk, LA

Change the Weather History Date:

Saturday, January 19, 2013

  Actual Average (KPOE) Record (KPOE)
Temperature  
Mean Temperature 46 °F -  
Max Temperature 61 °F 58 °F 78 °F (2000)
Min Temperature 30 °F 38 °F 26 °F (2003)
Degree Days  
Heating Degree Days 20    
Moisture  
Dew Point 33 °F    
Average Humidity 75    
Maximum Humidity 96    
Minimum Humidity 36    
Precipitation  
Precipitation 0.00 in - - ()
Sea Level Pressure  
Sea Level Pressure 30.29 in    
Wind  
Wind Speed 1 mph (North)    
Max Wind Speed 5 mph    
Max Gust Speed -    
Visibility 10 miles    
Events      
Averages and records for this station are not official NWS values.
T = Trace of Precipitation, MM = Missing Value Source: NWS Daily Summary

Daily Weather History Graph

Daily Weather History Graph

Search for Another Location

Airport:

Trip Planner

Search our weather history database for the weather conditions in past years. The results will help you decide how hot, cold, wet, or windy it might be!

Date:

Astronomy

Jan. 19, 2013 Rise Set
Actual Time 7:11 AM CST 5:36 PM CST
Civil Twilight 6:45 AM CST 6:02 PM CST
Nautical Twilight 6:15 AM CST 6:32 PM CST
Astronomical Twilight 5:46 AM CST 7:01 PM CST
Moon 11:58 AM CST 12:52 AM CST
Length of Visible Light 11h 17m
Length of Day
10h 24m
First Quarter, 57% of the Moon is Illuminated
Jan 19
First Quarter
Jan 26
Full
Feb 3
Last Quarter
Feb 10
New
Feb 17
First Quarter

Hourly Weather History & Observations

Time (CST) Temp. Dew Point Humidity Pressure Visibility Wind Dir Wind Speed Gust Speed Precip Events Conditions
12:56 AM 33.1 °F 28.9 °F 85% 30.36 in 10.0 mi Calm Calm - N/A   Clear
1:56 AM 32.0 °F 28.9 °F 88% 30.36 in 10.0 mi Calm Calm - N/A   Clear
2:56 AM 30.9 °F 28.9 °F 92% 30.34 in 10.0 mi Calm Calm - N/A   Clear
3:56 AM 30.9 °F 28.9 °F 92% 30.34 in 10.0 mi Calm Calm - N/A   Clear
4:56 AM 30.0 °F 28.0 °F 92% 30.33 in 10.0 mi Calm Calm - N/A   Clear
5:56 AM 30.0 °F 28.9 °F 96% 30.33 in 8.0 mi Calm Calm - N/A   Clear
6:56 AM 30.9 °F 28.9 °F 92% 30.33 in 7.0 mi Calm Calm - N/A   Clear
7:56 AM 32.0 °F 30.9 °F 96% 30.33 in 6.0 mi Calm Calm - N/A   Clear
8:56 AM 42.1 °F 37.9 °F 85% 30.33 in 10.0 mi Calm Calm - N/A   Clear
9:56 AM 50.0 °F 37.9 °F 63% 30.36 in 10.0 mi South 4.6 mph - N/A   Clear
10:56 AM 52.0 °F 36.0 °F 54% 30.34 in 10.0 mi Calm Calm - N/A   Clear
11:56 AM 55.9 °F 36.0 °F 47% 30.30 in 10.0 mi Variable 4.6 mph - N/A   Clear
12:56 PM 57.9 °F 33.1 °F 39% 30.27 in 10.0 mi Variable 4.6 mph - N/A   Clear
1:56 PM 60.1 °F 34.0 °F 38% 30.24 in 10.0 mi Calm Calm - N/A   Clear
2:56 PM 60.1 °F 33.1 °F 36% 30.22 in 10.0 mi Variable 3.5 mph - N/A   Clear
3:56 PM 61.0 °F 34.0 °F 36% 30.22 in 10.0 mi Variable 3.5 mph - N/A   Clear
5:56 PM 48.0 °F 39.0 °F 71% 30.23 in 10.0 mi Calm Calm - N/A   Clear
6:56 PM 43.0 °F 37.9 °F 82% 30.24 in 10.0 mi Calm Calm - N/A   Clear
7:56 PM 39.9 °F 37.0 °F 89% 30.25 in 10.0 mi Calm Calm - N/A   Clear
8:56 PM 39.0 °F 36.0 °F 89% 30.25 in 10.0 mi Calm Calm - N/A   Clear
9:56 PM 37.0 °F 35.1 °F 93% 30.25 in 10.0 mi Calm Calm - N/A   Clear
10:56 PM 37.9 °F 35.1 °F 89% 30.26 in 10.0 mi Calm Calm - N/A   Clear
11:56 PM 37.9 °F 35.1 °F 89% 30.26 in 10.0 mi Calm Calm - N/A   Clear